map of TPE home
TPE - Airport
Location
City:  Taipei, Taiwan
Name:Taiwan Taoyuan International Airport
Old (Alt.):Chiang Kai Shek International Airport
ICAO:RCTP
IATA:TPE

Details
Type:Airport (Aerodrome, Airfield)
Use:Public/Civil, International (customs port of entry)
Latitude:2504'40"N (25.077731)
Longitude:12113'58"E (121.232822)
Datum:WGS 1984
Elevation:106 ft (32 m)
Variation:4.44W (WMM2015 magnetic declination)
-0.09 annual change
Runways:2
Longest:12008 × 197 ft (3660 × 60 m), paved

Time
Time Zone:UTC+8
Local Time:

Weather
METAR:RCTP 141830Z 04012KT 9999 FEW020 BKN080 19/18 Q1018 NOSIG RMK A3008
TAF:RCTP 141700Z 1418/1524 05018KT 9999 FEW010 SCT020 BKN032
TEMPO 1418/1424 5000 RA SCT008 BKN016 BKN040
TEMPO 1518/1524 03022G32KT 5000 RA SCT008 BKN016 BKN040

Related Locations
Nearby:
Farthest:CLX: 12379 mi / 19922 km
Clorinda [Clorinda Airport], P, AR

Find:

   beyond  
but within

Other Information
Maps:
NOTAMs:
Links:
Sources:

  
flag of Taiwan
flag of Taipei
  

Sectional Chart

Flight Planning
at skyvector.com

Satellite Image

Google Maps Satellite view

 

Copyright © 2004-2017 Karl L. Swartz. All rights reserved.
The Great Circle Mapper name and logo are trademarks of the Great Circle Mapper.
All other trademarks mentioned herein belong to their respective owners.
Please see credits for attibutions and further copyright information.

  Follow gcmap on Facebook Follow gcmap on Twitter Follow gcmap on Google+ GCmap on LinkedIn

hCard Microformat

Geo Microformat